User: anonymous   Login
Location: Hickory_CSC
(35.7330°N, 81.3330°W)
Time: 08:06:12
(UTC-05:00)
Language:

Cosmos 1356 Rocket - Orbit

View from above orbital plane
View from above orbital plane
View from above satellite
View from above satellite

Ground track
Ground track

The orbit data is extracted from the following two-line orbital elements,

1 13154U 82039B   15030.85942058  .00002432  00000-0  20658-3 0  5199
2 13154 081.1862 130.0761 0040865 235.2363 124.5006 14.96907443773751
Epoch (UTC): 30 January 2015 20:37:33
Eccentricity: 0.0040865
inclination: 81.1862°
perigee height: 548 km
apogee height: 605 km
right ascension of ascending node: 130.0761°
argument of perigee: 235.2363°
revolutions per day: 14.96907443
mean anomaly at epoch: 124.5006°
orbit number at epoch: 77375

The dashed part of the orbit path shows where the satellite is in the earth's shadow,  

DLR